Regional Weather Roundup
Issued by NWS Sterling, VA

Home | Current Version | Previous Version | Text Only | Print | Product List | Glossary On
Versions: 1 2 3 4 5 6 7 8 9 10 11 12 13 14 15 16 17 18 19 20 21 22 23 24 25 26 27 28 29 30 31 32 33 34 35 36 37 38 39 40 41 42 43 44 45 46 47 48 49 50
000
ASUS41 KLWX 011610
RWRLWX

REGIONAL WEATHER ROUNDUP
NATIONAL WEATHER SERVICE BALTIMORE MD/WASHINGTON DC
1200 PM EDT FRI AUG 01 2014

Note: "FAIR" indicates few or no clouds below 12,000 feet
with no significant weather and/or obstructions to visibility.
 TC=TEMPERATURE CELSIUS

 * =Non NWS site. Station does not report precipitation (e.g. rain,
    snow, etc.), thunder, or fog.

DCZ001-MDZ009-015-VAZ040>042-051-053>054-011700-
WASHINGTON METRO
  /KDAA//-FT BELVOIR

CITY           SKY/WX    TMP DP  RH WIND       PRES   REMARKS
WASHINGTON NAT LGT RAIN  79  67  66 SW7       30.21R
DULLES         CLOUDY    75  64  68 S10       30.20R
ANDREWS AFB    DRIZZLE   76  68  77 SW8       30.21S
QUANTICO       LGT RAIN  74  66  76 VRB5      30.22R
COLLEGE PARK*  CLOUDY    77  66  69 SW5       30.20S
LEESBURG*      CLOUDY    77  70  78 SW5       30.21S
GAITHERSBURG*  CLOUDY    75  64  69 SW5       30.24S

$$

MDZ006>007-011-014-011700-
BALTIMORE METRO

CITY           SKY/WX    TMP DP  RH WIND       PRES   REMARKS
BWI AIRPORT    CLOUDY    78  68  71 SW5       30.19S
MD SCIENCE CTR   N/A     79  67  66 MISG      30.20R
MARTIN STATE   CLOUDY    81  72  74 S5        30.21R
ANNAPOLIS      CLOUDY    79  69  71 VRB5      30.20R
FORT MEADE*    CLOUDY    75  68  78 SW5       30.22S

$$

MDZ012-015-019>023-011700-
MARYLAND EASTERN SHORE

CITY           SKY/WX    TMP DP  RH WIND       PRES   REMARKS
OCEAN CITY     CLOUDY    76  69  79 SE3       30.21S
SALISBURY      LGT RAIN  79  69  71 VRB3      30.21R
BAY BRIDGE AP* LGT RAIN  77  68  73 CALM      30.20S
CAMBRIDGE*     CLOUDY    77  68  73 CALM      30.21R
EASTON*        CLOUDY    77  72  83 W6        30.24R

$$

MDZ017>025-011700-
SOUTHERN MARYLAND

CITY           SKY/WX    TMP DP  RH WIND       PRES   REMARKS
PATUXENT RIVER LGT RAIN  73  69  87 W6        30.21R
ST INIGOES     LGT RAIN  74  66  76 NW6       30.21R
LEONARDTOWN*   CLOUDY    72  66  83 CALM      30.23R

$$

MDZ003>005-011700-
NORTH CENTRAL MARYLAND

CITY           SKY/WX    TMP DP  RH WIND       PRES   REMARKS
FREDERICK*     PTSUNNY   75  72  88 SW8       30.22S
HAGERSTOWN APT CLOUDY    76  63  64 SW7       30.19S
WESTMINSTER*   CLOUDY    77  68  73 SW8       30.21R

$$

MDZ501>502-011700-
WESTERN MARYLAND

CITY           SKY/WX    TMP DP  RH WIND       PRES   REMARKS
OAKLAND*       CLOUDY    72  63  73 SE7       30.25S
CUMBERLAND*    CLOUDY    75  63  64 SE3       30.23F

$$

VAZ025>031-011700-
SHENANDOAH VALLEY

CITY           SKY/WX    TMP DP  RH WIND       PRES   REMARKS
WINCHESTER*    CLOUDY    73  63  68 SW5       30.20S
STAUNTON*      RAIN      69  63  83 CALM      30.25S

$$

WVZ021-048>050-054>055-011700-
EASTERN WEST VIRGINIA PANHANDLE

CITY           SKY/WX    TMP DP  RH WIND       PRES   REMARKS
MARTINSBURG    CLOUDY    74  63  68 S5        30.21R
PETERSBURG*    HVY RAIN  68  60  75 E3        30.21R

$$

VAZ036>039-050-011700-
CENTRAL FOOTHILLS

CITY           SKY/WX    TMP DP  RH WIND       PRES   REMARKS
CHARLOTTESVILL LGT RAIN  70  66  87 NW3       30.21S
ORANGE*        LGT RAIN  70  66  88 CALM      30.23S

$$

VAZ055>057-011700-
NORTH AND CENTRAL PIEDMONT

CITY           SKY/WX    TMP DP  RH WIND       PRES   REMARKS
FREDERICKSBRG* DRIZZLE   73  70  91 W3        30.21S
STAFFORD*      RAIN      72  72 100 SW3       30.26R

$$

NCZ024-NYZ072-PAZ021-071-VAZ022-071-011700-
OTHER REGIONAL OBSERVATIONS

CITY           SKY/WX    TMP DP  RH WIND       PRES   REMARKS
NEW YORK CITY  SUNNY     82  68  62 VRB3      30.22S
PHILADELPHIA   CLOUDY    80  69  69 S5        30.20R
PITTSBURGH     PTSUNNY   76  63  64 S6        30.17S
ROANOKE        LGT RAIN  66  62  87 N3        30.23S
RICHMOND       CLOUDY    76  70  82 NE8       30.18F
RALEIGH        CLOUDY    75  67  76 E9        30.14R

$$

ANZ530>537-011700-
MARINE OBSERVATIONS

STATION/POSITION TIME  TEMP    WIND        PRES
                       AIR SEA DIR/SP/G
                 (UTC) (F)     (DEG/KT/KT) (MB)
THOMAS PT LIGHT  1600   75 78  210/  7/  8 1023.3R
BALT KEY BRIDGE  1600          190/  3/  5 1022.3R
COVE POINT       1600   74     230/  3/  4 1022.9R
LEWISETTA        1600   74 78  310/  3/  3 1022.7S
SOLOMONS ISLAND  1600      79                N/A
PINEY POINT      1600          320/  6/  7   N/A

$$



USA.gov is the U.S. government's official web portal to all federal, state and local government web resources and services.